CW8508 Weather Reports


time (UTC)temp
F
wind
direction
speed
knots
gust
knots
rain 1hr
in
rain 24hr
in
rain mn
in
humidity
%
barometer
mb
20210927072510 64 263 0.0 0.0 0.00 0.00 0.00 82 1016.4
20210927072010 64 263 0.0 0.0 0.00 0.00 0.00 82 1016.5
20210927071510 64 314 0.0 0.0 0.00 0.00 0.00 82 1016.5
20210927071011 64 56 0.0 0.0 0.00 0.00 0.00 82 1016.6
20210927070510 64 56 0.0 0.0 0.00 0.00 0.00 82 1016.5
20210927070010 64 98 0.0 0.0 0.00 0.00 0.00 82 1016.5
20210927065510 64 98 0.0 0.0 0.00 0.00 0.00 82 1016.6
20210927065010 64 167 0.0 0.0 0.00 0.00 0.00 82 1016.6
20210927064510 64 167 0.0 0.0 0.00 0.00 0.00 82 1016.5
20210927064010 64 167 0.0 0.0 0.00 0.00 0.00 82 1016.6
20210927063511 64 250 0.0 0.0 0.00 0.00 0.00 82 1016.6
20210927063010 64 250 0.0 0.9 0.00 0.00 0.00 81 1016.6
20210927062511 64 250 0.0 0.9 0.00 0.00 0.00 82 1016.6
20210927062011 64 250 0.0 0.9 0.00 0.00 0.00 82 1016.6
20210927061510 64 250 0.0 0.9 0.00 0.00 0.00 82 1016.6
20210927061010 64 258 0.0 1.7 0.00 0.00 0.00 82 1016.6
20210927060510 64 258 0.0 1.7 0.00 0.00 0.00 82 1016.5
20210927060010 64 265 0.0 0.0 0.00 0.00 0.00 81 1016.6
20210927055511 64 265 0.0 1.7 0.00 0.00 0.00 81 1016.5
20210927055010 64 265 0.0 2.6 0.00 0.00 0.00 81 1016.6
20210927054511 64 215 1.7 3.5 0.00 0.00 0.00 81 1016.5
20210927054010 64 277 0.0 3.5 0.00 0.00 0.00 81 1016.5
20210927053510 64 263 0.0 1.7 0.00 0.00 0.00 81 1016.4
20210927053011 64 258 0.0 1.7 0.00 0.00 0.00 81 1016.4
20210927052510 64 260 0.0 0.9 0.00 0.00 0.00 81 1016.4
20210927052010 64 252 0.0 0.9 0.00 0.00 0.00 81 1016.3
20210927051510 64 251 0.0 0.9 0.00 0.00 0.00 81 1016.4
20210927051010 64 262 0.9 1.7 0.00 0.00 0.00 81 1016.4
20210927050511 64 269 0.0 1.7 0.00 0.00 0.00 81 1016.4
20210927050011 64 243 0.0 1.7 0.00 0.00 0.00 81 1016.5
20210927045510 64 261 0.0 0.9 0.00 0.00 0.00 81 1016.5
20210927045011 64 242 0.0 0.9 0.00 0.00 0.00 81 1016.5
20210927044510 64 222 0.0 0.9 0.00 0.00 0.00 82 1016.5
20210927044010 64 222 0.0 0.9 0.00 0.00 0.00 82 1016.5
20210927043510 64 222 0.0 1.7 0.00 0.00 0.00 82 1016.5
20210927043010 64 222 0.9 1.7 0.00 0.00 0.00 82 1016.4
20210927042511 64 244 0.0 0.9 0.00 0.00 0.00 81 1016.4
20210927042010 64 244 0.0 0.0 0.00 0.00 0.00 81 1016.4
20210927041511 64 256 0.0 0.0 0.00 0.00 0.00 81 1016.4
20210927041011 64 257 0.0 0.9 0.00 0.00 0.00 81 1016.4
20210927040510 64 261 0.0 0.9 0.00 0.00 0.00 81 1017.4
20210927040010 64 242 0.0 0.9 0.00 0.00 0.00 81 1017.3
20210927035510 64 232 0.0 0.9 0.00 0.00 0.00 81 1017.3
20210927035011 64 252 0.0 0.9 0.00 0.00 0.00 81 1017.3
20210927034511 64 251 0.0 1.7 0.00 0.00 0.00 81 1017.3
20210927034010 64 234 0.0 1.7 0.00 0.00 0.00 81 1017.2
20210927033510 64 258 0.0 2.6 0.00 0.00 0.00 81 1017.1
20210927033010 64 257 0.0 2.6 0.00 0.00 0.00 80 1017.1
20210927032511 64 259 0.0 1.7 0.00 0.00 0.00 81 1017.0
20210927032010 64 278 0.0 3.5 0.00 0.00 0.00 81 1016.9
20210927031511 64 246 0.9 3.5 0.00 0.00 0.00 80 1016.9
20210927031010 64 269 1.7 2.6 0.00 0.00 0.00 80 1016.9
20210927030510 64 250 0.0 1.7 0.00 0.00 0.00 80 1016.8
20210927030010 65 268 0.0 1.7 0.00 0.00 0.00 80 1016.7
20210927025510 65 254 0.0 0.9 0.00 0.00 0.00 80 1016.7
20210927025010 65 259 0.0 0.9 0.00 0.00 0.00 80 1016.6
20210927024510 65 240 0.0 0.9 0.00 0.00 0.00 79 1016.4
20210927024010 65 260 0.0 0.9 0.00 0.00 0.00 79 1016.4
20210927023510 65 246 0.0 0.9 0.00 0.00 0.00 78 1016.3
20210927023010 65 265 0.0 1.7 0.00 0.00 0.00 78 1016.3
20210927022510 66 260 0.0 2.6 0.00 0.00 0.00 78 1016.3
20210927022011 66 265 0.0 2.6 0.00 0.00 0.00 78 1016.3
20210927021510 66 259 0.0 2.6 0.00 0.00 0.00 78 1016.2
20210927021010 66 265 0.0 2.6 0.00 0.00 0.00 77 1016.2
20210927020510 67 272 0.9 2.6 0.00 0.00 0.00 77 1016.2
20210927020010 67 257 0.9 2.6 0.00 0.00 0.00 77 1016.1
20210927015510 67 238 0.0 2.6 0.00 0.00 0.00 77 1016.2
20210927015011 68 254 0.0 2.6 0.00 0.00 0.00 76 1016.1
20210927014510 68 271 0.9 3.5 0.00 0.00 0.00 74 1016.1
20210927014011 68 274 0.0 3.5 0.00 0.00 0.00 74 1016.1
20210927013512 69 265 0.9 3.5 0.00 0.00 0.00 73 1016.1
20210927013010 69 258 0.0 3.5 0.00 0.00 0.00 72 1016.1
20210927012510 69 234 0.0 4.3 0.00 0.00 0.00 71 1016.0
20210927012010 70 265 0.0 4.3 0.00 0.00 0.00 70 1016.0
20210927011510 70 266 0.0 3.5 0.00 0.00 0.00 69 1015.9
20210927011010 70 267 0.0 3.5 0.00 0.00 0.00 68 1015.9
20210927010511 70 232 0.0 5.2 0.00 0.00 0.00 68 1015.8
20210927010010 71 271 0.9 5.2 0.00 0.00 0.00 67 1015.8
20210927005510 71 261 2.6 4.3 0.00 0.00 0.00 67 1015.8
20210927005010 71 281 1.7 7.0 0.00 0.00 0.00 66 1015.8
20210927004511 72 265 1.7 7.0 0.00 0.00 0.00 66 1015.8
20210927004011 72 288 3.5 6.1 0.00 0.00 0.00 66 1015.8
20210927003511 72 200 1.7 6.1 0.00 0.00 0.00 65 1015.8
20210927003010 72 274 3.5 6.1 0.00 0.00 0.00 64 1015.7
20210927002511 73 217 0.9 5.2 0.00 0.00 0.00 64 1015.8
20210927002010 73 275 2.6 6.1 0.00 0.00 0.00 63 1015.7
20210927001511 74 240 1.7 7.0 0.00 0.00 0.00 62 1015.7
20210927001011 74 262 0.0 7.0 0.00 0.00 0.00 62 1015.7
20210927000510 74 263 0.9 5.2 0.00 0.00 0.00 61 1015.8
20210927000010 75 286 2.6 5.2 0.00 0.00 0.00 60 1015.8
20210926235510 76 284 4.3 7.8 0.00 0.00 0.00 59 1015.8
20210926235010 76 236 1.7 7.8 0.00 0.00 0.00 59 1015.8
20210926234510 76 265 1.7 7.0 0.00 0.00 0.00 58 1015.8
20210926234010 77 127 2.6 7.8 0.00 0.00 0.00 57 1015.8
20210926233510 77 260 2.6 7.8 0.00 0.00 0.00 57 1015.7
20210926233010 77 254 5.2 6.1 0.00 0.00 0.00 57 1015.8
20210926232510 77 281 2.6 7.0 0.00 0.00 0.00 56 1015.7
20210926232011 78 262 0.9 7.0 0.00 0.00 0.00 56 1015.8
20210926231510 78 263 0.9 7.0 0.00 0.00 0.00 55 1015.7
20210926231011 78 255 3.5 7.8 0.00 0.00 0.00 55 1015.7
20210926230511 78 283 1.7 7.8 0.00 0.00 0.00 55 1015.7
20210926230011 79 273 2.6 8.7 0.00 0.00 0.00 54 1015.8
20210926225511 79 273 1.7 8.7 0.00 0.00 0.00 54 1015.8
20210926225011 79 264 5.2 7.0 0.00 0.00 0.00 54 1015.8
20210926224511 79 267 3.5 9.6 0.00 0.00 0.00 54 1015.7
20210926224011 79 270 2.6 9.6 0.00 0.00 0.00 54 1015.8
20210926223511 79 257 4.3 9.6 0.00 0.00 0.00 55 1015.8
20210926223011 78 252 4.3 9.6 0.00 0.00 0.00 55 1015.8
20210926222510 78 272 1.7 6.1 0.00 0.00 0.00 55 1015.7
20210926222010 78 284 1.7 7.0 0.00 0.00 0.00 56 1015.6
20210926221510 78 232 3.5 7.0 0.00 0.00 0.00 56 1015.7
20210926221010 78 259 2.6 7.8 0.00 0.00 0.00 56 1015.7
20210926220510 78 246 0.0 9.6 0.00 0.00 0.00 55 1015.7
20210926220010 78 273 2.6 9.6 0.00 0.00 0.00 56 1015.8
20210926215510 78 239 4.3 8.7 0.00 0.00 0.00 55 1015.8
20210926215011 78 267 4.3 7.8 0.00 0.00 0.00 56 1015.8
20210926214511 78 230 3.5 8.7 0.00 0.00 0.00 56 1015.8
20210926214010 78 261 3.5 8.7 0.00 0.00 0.00 58 1015.8
20210926213511 78 265 2.6 7.0 0.00 0.00 0.00 57 1015.8
20210926213011 77 237 7.0 9.6 0.00 0.00 0.00 58 1015.8
20210926212510 77 272 1.7 9.6 0.00 0.00 0.00 58 1015.8
20210926212011 77 269 6.1 9.6 0.00 0.00 0.00 58 1015.9
20210926211510 77 207 1.7 9.6 0.00 0.00 0.00 59 1015.9
20210926211010 77 264 3.5 7.8 0.00 0.00 0.00 59 1015.9
20210926210511 77 250 4.3 7.8 0.00 0.00 0.00 60 1015.9
20210926210011 77 261 4.3 7.8 0.00 0.00 0.00 59 1016.0
20210926205511 76 227 4.3 7.8 0.00 0.00 0.00 60 1016.1
20210926205010 76 269 2.6 7.8 0.00 0.00 0.00 61 1016.1
20210926204511 76 262 3.5 6.1 0.00 0.00 0.00 62 1016.2
20210926204011 75 234 0.0 7.0 0.00 0.00 0.00 63 1016.1
20210926203510 75 240 1.7 7.0 0.00 0.00 0.00 62 1016.3
20210926203011 75 263 3.5 7.0 0.00 0.00 0.00 63 1016.3
20210926202510 75 250 0.0 7.0 0.00 0.00 0.00 63 1016.4
20210926202010 75 254 3.5 7.0 0.00 0.00 0.00 64 1016.4
20210926201510 74 287 2.6 7.0 0.00 0.00 0.00 64 1016.6
20210926201010 74 242 0.0 4.3 0.00 0.00 0.00 64 1016.6
20210926200510 74 205 1.7 5.2 0.00 0.00 0.00 64 1016.8
20210926200010 74 208 0.9 5.2 0.00 0.00 0.00 65 1016.8
20210926195511 74 216 2.6 5.2 0.00 0.00 0.00 67 1016.9
20210926195010 73 202 2.6 5.2 0.00 0.00 0.00 68 1016.9
20210926194512 72 276 2.6 5.2 0.00 0.00 0.00 68 1017.0
20210926194011 72 229 0.9 6.1 0.00 0.00 0.00 68 1017.0
20210926193510 72 205 1.7 7.0 0.00 0.00 0.00 69 1017.1
20210926193011 71 259 1.7 7.0 0.00 0.00 0.00 70 1017.1
20210926192510 71 223 3.5 5.2 0.00 0.00 0.00 71 1017.1
20210926192011 70 226 3.5 4.3 0.00 0.00 0.00 72 1017.1
20210926191511 70 230 2.6 5.2 0.00 0.00 0.00 72 1017.2
20210926191011 70 239 2.6 5.2 0.00 0.00 0.00 73 1017.2
20210926190511 70 277 2.6 5.2 0.00 0.00 0.00 73 1017.2
20210926190011 69 175 0.0 4.3 0.00 0.00 0.00 74 1017.2
20210926185510 69 138 0.0 4.3 0.00 0.00 0.00 74 1017.2
20210926185010 69 189 2.6 3.5 0.00 0.00 0.00 74 1017.2
20210926184510 69 195 0.0 3.5 0.00 0.00 0.00 75 1017.3
20210926184011 69 210 0.0 3.5 0.00 0.00 0.00 75 1017.3
20210926183511 69 210 0.0 3.5 0.00 0.00 0.00 75 1017.3
20210926183011 68 224 0.0 4.3 0.00 0.00 0.00 76 1017.4
20210926182510 68 231 0.0 4.3 0.00 0.00 0.00 76 1017.4
20210926182011 68 230 0.0 3.5 0.00 0.00 0.00 77 1017.4
20210926181510 68 230 0.0 3.5 0.00 0.00 0.00 77 1017.5
20210926181010 68 230 0.0 2.6 0.00 0.00 0.00 77 1017.4
20210926180511 67 228 0.0 2.6 0.00 0.00 0.00 78 1017.4
20210926180010 67 227 0.0 5.2 0.00 0.00 0.00 78 1017.4
20210926175510 67 227 0.0 5.2 0.00 0.00 0.00 78 1017.4
20210926175011 67 234 0.0 5.2 0.00 0.00 0.00 79 1017.4
20210926174510 67 161 0.0 0.0 0.00 0.00 0.00 80 1017.5
20210926174011 66 161 0.0 0.0 0.00 0.00 0.00 80 1017.5
20210926173511 66 161 0.0 0.0 0.00 0.00 0.00 81 1017.5
20210926173010 66 161 0.0 0.0 0.00 0.00 0.00 81 1017.5
20210926172511 66 161 0.0 0.0 0.00 0.00 0.00 81 1017.6
20210926172010 66 161 0.0 0.0 0.00 0.00 0.00 81 1017.5
20210926171511 66 161 0.0 0.0 0.00 0.00 0.00 82 1017.6
20210926171010 65 161 0.0 0.0 0.00 0.00 0.00 82 1017.6
20210926170510 65 161 0.0 0.0 0.00 0.00 0.00 82 1017.7
20210926170011 65 161 0.0 0.0 0.00 0.00 0.00 82 1017.7
20210926165511 65 161 0.0 0.0 0.00 0.00 0.00 82 1017.7
20210926165011 65 161 0.0 0.0 0.00 0.00 0.00 83 1017.7
20210926164511 65 161 0.0 0.0 0.00 0.00 0.00 82 1017.7
20210926164011 65 161 0.0 0.0 0.00 0.00 0.00 83 1017.8
20210926163511 65 161 0.0 0.0 0.00 0.00 0.00 83 1017.8
20210926163010 64 161 0.0 0.0 0.00 0.00 0.00 83 1017.8
20210926162511 64 161 0.0 0.0 0.00 0.00 0.00 84 1017.6
20210926162010 64 161 0.0 0.0 0.00 0.00 0.00 84 1017.7
20210926161512 64 161 0.0 0.0 0.00 0.00 0.00 83 1017.6
20210926161010 64 161 0.0 0.0 0.00 0.00 0.00 84 1017.5
20210926160511 64 161 0.0 0.0 0.00 0.00 0.00 84 1017.4
20210926160011 64 161 0.0 0.0 0.00 0.00 0.00 84 1017.4
20210926155511 64 161 0.0 0.0 0.00 0.00 0.00 84 1017.4
20210926155011 64 161 0.0 0.0 0.00 0.00 0.00 84 1017.4
20210926154511 64 161 0.0 0.0 0.00 0.00 0.00 84 1017.3
20210926154011 64 188 0.0 0.0 0.00 0.00 0.00 85 1017.2
20210926153511 64 188 0.0 0.0 0.00 0.00 0.00 85 1017.2
20210926153011 64 188 0.0 0.0 0.00 0.00 0.00 85 1017.2
20210926152511 63 188 0.0 0.0 0.00 0.00 0.00 85 1017.2
20210926152011 63 188 0.0 0.0 0.00 0.00 0.00 85 1017.3
20210926151511 63 188 0.0 0.0 0.00 0.00 0.00 85 1017.3
20210926151011 63 189 0.0 0.0 0.00 0.00 0.00 85 1017.3
20210926150511 63 259 0.0 0.0 0.00 0.00 0.00 85 1017.2
20210926150012 63 258 0.0 0.0 0.00 0.00 0.00 85 1017.2
20210926145511 63 258 0.0 0.0 0.00 0.00 0.00 85 1017.1
20210926145011 63 261 0.0 0.0 0.00 0.00 0.00 85 1017.1
20210926144511 63 261 0.0 0.0 0.00 0.00 0.00 85 1017.1
20210926144011 63 260 0.0 0.0 0.00 0.00 0.00 85 1017.0
20210926143511 63 260 0.0 0.0 0.00 0.00 0.00 85 1017.0
20210926143011 63 236 0.0 0.0 0.00 0.00 0.00 85 1017.0
20210926142511 63 236 0.0 0.0 0.00 0.00 0.00 85 1017.0
20210926142011 63 236 0.0 0.0 0.00 0.00 0.00 85 1016.9
20210926141511 63 236 0.0 0.0 0.00 0.00 0.00 85 1016.8
20210926141011 63 236 0.0 0.0 0.00 0.00 0.00 85 1016.9
20210926140511 63 236 0.0 0.0 0.00 0.00 0.00 85 1016.9
20210926140011 63 236 0.0 0.0 0.00 0.00 0.00 85 1016.9
20210926135511 63 236 0.0 0.0 0.00 0.00 0.00 85 1016.9
20210926135011 63 236 0.0 0.0 0.00 0.00 0.00 85 1016.8
20210926134511 63 236 0.0 0.0 0.00 0.00 0.00 85 1016.8
20210926134012 63 236 0.0 0.0 0.00 0.00 0.00 85 1016.6
20210926133511 63 236 0.0 0.0 0.00 0.00 0.00 85 1016.5
20210926133011 63 236 0.0 0.0 0.00 0.00 0.00 85 1016.6
20210926132511 63 236 0.0 0.0 0.00 0.00 0.00 85 1016.6
20210926132011 63 236 0.0 0.0 0.00 0.00 0.00 85 1016.6
20210926131511 63 236 0.0 0.0 0.00 0.00 0.00 85 1016.4
20210926131011 63 236 0.0 0.0 0.00 0.00 0.00 85 1016.3
20210926130511 63 236 0.0 0.0 0.00 0.00 0.00 85 1016.2
20210926130011 63 236 0.0 0.0 0.00 0.00 0.00 85 1016.3
20210926125511 63 236 0.0 0.0 0.00 0.00 0.00 85 1016.3
20210926125011 63 236 0.0 0.0 0.00 0.00 0.00 85 1016.3
20210926124511 63 236 0.0 0.0 0.00 0.00 0.00 85 1016.4
20210926124011 63 236 0.0 0.0 0.00 0.00 0.00 85 1016.5
20210926123511 63 236 0.0 0.0 0.00 0.00 0.00 85 1016.5
20210926123011 63 236 0.0 0.0 0.00 0.00 0.00 85 1016.5
20210926122511 63 236 0.0 0.0 0.00 0.00 0.00 85 1016.5
20210926122011 63 0.0 0.0 0.00 0.00 0.00 85 1016.6
20210926121511 63 0.0 0.0 0.00 0.00 0.00 85 1016.5
20210926121011 63 0.0 0.0 0.00 0.00 0.00 86 1016.4
20210926120511 63 0.0 0.0 0.00 0.00 0.00 86 1016.4
20210926120011 63 126 0.0 0.9 0.00 0.00 0.00 86 1016.6
20210926115511 63 126 0.0 0.9 0.00 0.00 0.00 86 1016.6
20210926115011 62 130 0.0 0.0 0.00 0.00 0.00 86 1016.7
20210926114511 62 130 0.0 0.0 0.00 0.00 0.00 86 1016.7
20210926114011 62 163 0.0 0.0 0.00 0.00 0.00 86 1016.6
20210926113511 62 254 0.0 0.0 0.00 0.00 0.00 86 1016.6
20210926113012 62 254 0.0 0.0 0.00 0.00 0.00 86 1016.6
20210926112511 62 254 0.0 0.0 0.00 0.00 0.00 86 1016.5
20210926112011 62 254 0.0 1.7 0.00 0.00 0.00 86 1016.5
20210926111511 62 254 0.0 1.7 0.00 0.00 0.00 86 1016.4
20210926111011 62 242 1.7 0.9 0.00 0.00 0.00 86 1016.4
20210926110511 62 265 0.0 0.0 0.00 0.00 0.00 86 1016.3
20210926110011 62 257 0.0 1.7 0.00 0.00 0.00 86 1016.3
20210926105511 62 257 0.0 1.7 0.00 0.00 0.00 86 1016.3
20210926105011 62 257 0.0 0.0 0.00 0.00 0.00 86 1016.3
20210926104511 62 242 0.0 0.0 0.00 0.00 0.00 86 1016.2
20210926104011 62 242 0.0 0.0 0.00 0.00 0.00 86 1016.2
20210926103511 62 242 0.0 0.0 0.00 0.00 0.00 86 1016.2
20210926103011 62 248 0.0 0.0 0.00 0.00 0.00 86 1016.2
20210926102511 62 248 0.0 0.0 0.00 0.00 0.00 86 1016.2
20210926102011 62 271 0.0 0.0 0.00 0.00 0.00 86 1016.2
20210926101511 62 271 0.0 0.0 0.00 0.00 0.00 86 1016.2
20210926101011 62 261 0.0 0.9 0.00 0.00 0.00 86 1016.2
20210926100512 62 261 0.0 0.9 0.00 0.00 0.00 86 1016.2
20210926100011 62 259 0.0 0.0 0.00 0.00 0.00 86 1016.3
20210926095511 62 263 0.0 0.9 0.00 0.00 0.00 86 1016.3
20210926095011 62 262 0.0 1.7 0.00 0.00 0.00 86 1016.3
20210926094511 62 258 0.0 1.7 0.00 0.00 0.00 86 1016.3
20210926094011 62 272 0.0 1.7 0.00 0.00 0.00 86 1016.3
20210926093511 62 264 0.0 0.9 0.00 0.00 0.00 86 1016.4
20210926093011 62 262 0.0 0.9 0.00 0.00 0.00 86 1016.5
20210926092511 62 262 0.0 0.9 0.00 0.00 0.00 86 1016.5
20210926092011 62 271 0.0 0.9 0.00 0.00 0.00 85 1016.5
20210926091511 62 260 0.0 0.9 0.00 0.00 0.00 85 1016.7
20210926091011 62 242 0.0 0.0 0.00 0.00 0.00 85 1016.7
20210926090511 62 242 0.0 0.0 0.00 0.00 0.00 85 1016.8
20210926090011 62 242 0.0 0.0 0.00 0.00 0.00 84 1016.8
20210926085511 62 242 0.0 0.0 0.00 0.00 0.00 84 1016.8
20210926085011 62 242 0.0 0.0 0.00 0.00 0.00 84 1016.8
20210926084511 62 242 0.0 0.0 0.00 0.00 0.00 84 1016.7
20210926084011 62 242 0.0 0.9 0.00 0.00 0.00 84 1016.6
20210926083511 62 242 0.0 0.9 0.00 0.00 0.00 83 1016.6
20210926083011 62 242 0.0 0.0 0.00 0.00 0.00 83 1016.6
20210926082511 62 242 0.0 0.0 0.00 0.00 0.00 83 1016.4
20210926082012 62 242 0.0 0.0 0.00 0.00 0.00 83 1016.4
20210926081511 62 242 0.0 0.0 0.00 0.00 0.00 83 1016.4
20210926081011 62 242 0.0 0.0 0.00 0.00 0.00 83 1016.4
20210926080511 62 242 0.0 0.0 0.00 0.00 0.00 83 1016.4
20210926080011 62 242 0.0 0.0 0.00 0.00 0.00 83 1016.4
20210926075511 62 243 0.0 0.9 0.00 0.00 0.00 83 1016.4
20210926075011 62 243 0.0 0.9 0.00 0.00 0.00 82 1016.5
20210926074511 62 243 0.0 0.0 0.00 0.00 0.00 82 1016.5
20210926074011 62 244 0.0 0.0 0.00 0.00 0.00 82 1016.5
20210926073512 63 243 0.0 0.0 0.00 0.00 0.00 82 1016.5
20210926073011 63 243 0.0 0.9 0.00 0.00 0.00 82 1016.4